Time,TemperatureF,DewpointF,PressureIn,WindDirection,WindDirectionDegrees,WindSpeedMPH,WindSpeedGustMPH,Humidity,HourlyPrecipIn,Conditions,Clouds,dailyrainin,SoftwareType,DateUTC
2013-01-15 00:05:00,3.2,-1.3,30.01,WSW,242,0.0,0.0,81,0.00,,,0.00,Weather View 32 v70,2013-01-15 07:05:00,
2013-01-15 00:10:00,3.2,-1.3,30.01,WSW,242,0.0,0.0,81,0.00,,,0.00,Weather View 32 v70,2013-01-15 07:10:00,
2013-01-15 00:15:00,3.1,-1.3,30.01,WSW,242,0.0,0.0,81,0.00,,,0.00,Weather View 32 v70,2013-01-15 07:15:00,
2013-01-15 00:25:00,3.1,-1.3,30.02,WSW,242,0.0,0.0,82,0.00,,,0.00,Weather View 32 v70,2013-01-15 07:25:00,
2013-01-15 00:30:00,3.1,-1.3,30.02,WSW,242,0.0,0.0,81,0.00,,,0.00,Weather View 32 v70,2013-01-15 07:30:00,
2013-01-15 00:35:00,3.0,-1.4,30.03,WSW,242,0.0,0.0,81,0.00,,,0.00,Weather View 32 v70,2013-01-15 07:35:00,
2013-01-15 00:45:00,3.0,-1.4,30.02,WSW,242,0.0,0.0,81,0.00,,,0.00,Weather View 32 v70,2013-01-15 07:45:00,
2013-01-15 00:50:00,3.3,-1.0,30.03,WSW,242,0.0,0.0,82,0.00,,,0.00,Weather View 32 v70,2013-01-15 07:50:00,
2013-01-15 00:55:00,3.5,-0.7,30.02,WSW,242,0.0,0.0,82,0.00,,,0.00,Weather View 32 v70,2013-01-15 07:55:00,
2013-01-15 01:00:00,3.7,-0.4,30.02,WSW,242,0.0,0.0,83,0.00,,,0.00,Weather View 32 v70,2013-01-15 08:00:00,
2013-01-15 01:10:00,4.2,0.1,30.03,WSW,242,0.0,0.0,83,0.00,,,0.00,Weather View 32 v70,2013-01-15 08:10:00,
2013-01-15 01:15:00,4.4,0.5,30.03,WSW,242,0.0,0.0,83,0.00,,,0.00,Weather View 32 v70,2013-01-15 08:15:00,
2013-01-15 01:20:00,4.5,0.5,30.03,WSW,242,0.0,0.0,83,0.00,,,0.00,Weather View 32 v70,2013-01-15 08:20:00,
2013-01-15 01:30:00,4.5,0.8,30.03,WSW,242,0.0,0.0,84,0.00,,,0.00,Weather View 32 v70,2013-01-15 08:30:00,
2013-01-15 01:35:00,4.5,0.9,30.03,WSW,242,0.0,0.0,85,0.00,,,0.00,Weather View 32 v70,2013-01-15 08:35:00,
2013-01-15 01:40:00,4.5,0.9,30.03,WSW,242,0.0,0.0,85,0.00,,,0.00,Weather View 32 v70,2013-01-15 08:40:00,
2013-01-15 01:45:00,4.4,0.7,30.03,WSW,242,0.0,0.0,84,0.00,,,0.00,Weather View 32 v70,2013-01-15 08:45:00,
2013-01-15 01:50:00,4.2,0.7,30.03,WSW,242,0.0,0.0,85,0.00,,,0.00,Weather View 32 v70,2013-01-15 08:50:00,
2013-01-15 01:55:00,4.1,0.5,30.03,WSW,242,0.0,0.0,85,0.00,,,0.00,Weather View 32 v70,2013-01-15 08:55:00,
2013-01-15 02:05:00,2.4,-0.8,30.03,WSW,242,0.0,0.0,86,0.00,,,0.00,Weather View 32 v70,2013-01-15 09:05:00,
2013-01-15 02:10:00,2.0,-1.0,30.03,WSW,242,0.0,0.0,87,0.00,,,0.00,Weather View 32 v70,2013-01-15 09:10:00,
2013-01-15 02:15:00,2.0,-0.8,30.04,WSW,242,0.0,0.0,88,0.00,,,0.00,Weather View 32 v70,2013-01-15 09:15:00,
2013-01-15 02:20:00,2.1,-0.7,30.03,WSW,242,0.0,0.0,88,0.00,,,0.00,Weather View 32 v70,2013-01-15 09:20:00,
2013-01-15 02:30:00,2.4,-0.5,30.03,WSW,242,0.0,0.0,87,0.00,,,0.00,Weather View 32 v70,2013-01-15 09:30:00,
2013-01-15 02:40:00,2.3,-1.0,30.03,WSW,242,0.0,0.0,86,0.00,,,0.00,Weather View 32 v70,2013-01-15 09:40:00,
2013-01-15 02:45:00,2.1,-1.2,30.03,WSW,242,0.0,0.0,86,0.00,,,0.00,Weather View 32 v70,2013-01-15 09:45:00,
2013-01-15 02:50:00,1.9,-1.5,30.03,WSW,242,0.0,0.0,85,0.00,,,0.00,Weather View 32 v70,2013-01-15 09:50:00,
2013-01-15 02:55:00,1.8,-1.7,30.03,WSW,242,0.0,0.0,85,0.00,,,0.00,Weather View 32 v70,2013-01-15 09:55:00,
2013-01-15 03:05:00,1.7,-1.8,30.03,WSW,242,0.0,0.0,85,0.00,,,0.00,Weather View 32 v70,2013-01-15 10:05:00,
2013-01-15 03:10:00,1.7,-2.0,30.03,WSW,242,0.0,0.0,84,0.00,,,0.00,Weather View 32 v70,2013-01-15 10:10:00,
2013-01-15 03:20:00,1.4,-2.2,30.03,WSW,242,0.0,0.0,84,0.00,,,0.00,Weather View 32 v70,2013-01-15 10:20:00,
2013-01-15 03:25:00,1.2,-2.3,30.03,WSW,242,0.0,0.0,85,0.00,,,0.00,Weather View 32 v70,2013-01-15 10:25:00,
2013-01-15 03:30:00,1.3,-2.2,30.03,WSW,242,0.0,0.0,85,0.00,,,0.00,Weather View 32 v70,2013-01-15 10:30:00,
2013-01-15 03:35:00,1.2,-2.3,30.03,WSW,242,0.0,0.0,85,0.00,,,0.00,Weather View 32 v70,2013-01-15 10:35:00,
2013-01-15 03:45:00,1.2,-2.4,30.03,WSW,242,0.0,0.0,84,0.00,,,0.00,Weather View 32 v70,2013-01-15 10:45:00,
2013-01-15 03:55:00,1.7,-2.3,30.03,WSW,242,0.0,0.0,83,0.00,,,0.00,Weather View 32 v70,2013-01-15 10:55:00,
2013-01-15 04:00:00,1.7,-2.2,30.03,WSW,242,0.0,0.0,83,0.00,,,0.00,Weather View 32 v70,2013-01-15 11:00:00,
2013-01-15 04:05:00,1.8,-2.2,30.03,WSW,242,0.0,0.0,83,0.00,,,0.00,Weather View 32 v70,2013-01-15 11:05:00,
2013-01-15 04:10:00,1.7,-2.4,30.03,WSW,242,0.0,0.0,82,0.00,,,0.00,Weather View 32 v70,2013-01-15 11:10:00,
2013-01-15 04:20:00,1.9,-2.4,30.02,WSW,242,0.0,0.0,82,0.00,,,0.00,Weather View 32 v70,2013-01-15 11:20:00,
2013-01-15 04:25:00,1.8,-2.5,30.03,WSW,242,0.0,0.0,82,0.00,,,0.00,Weather View 32 v70,2013-01-15 11:25:00,
2013-01-15 04:30:00,2.2,-2.2,30.02,WSW,242,0.0,0.0,82,0.00,,,0.00,Weather View 32 v70,2013-01-15 11:30:00,
2013-01-15 04:35:00,2.5,-2.0,30.02,WSW,242,0.0,0.0,81,0.00,,,0.00,Weather View 32 v70,2013-01-15 11:35:00,
2013-01-15 04:45:00,2.1,-2.5,30.02,WSW,242,0.0,0.0,81,0.00,,,0.00,Weather View 32 v70,2013-01-15 11:45:00,
2013-01-15 04:50:00,1.6,-2.7,30.01,WSW,242,0.0,0.0,82,0.00,,,0.00,Weather View 32 v70,2013-01-15 11:50:00,
2013-01-15 05:00:00,1.4,-2.9,30.01,WSW,242,0.0,0.0,82,0.00,,,0.00,Weather View 32 v70,2013-01-15 12:00:00,
2013-01-15 05:05:00,1.7,-2.8,30.01,WSW,242,0.0,0.0,81,0.00,,,0.00,Weather View 32 v70,2013-01-15 12:05:00,
2013-01-15 05:10:00,1.6,-2.8,30.01,WSW,242,0.0,0.0,81,0.00,,,0.00,Weather View 32 v70,2013-01-15 12:10:00,
2013-01-15 05:15:00,1.5,-2.9,30.01,WSW,242,0.0,0.0,81,0.00,,,0.00,Weather View 32 v70,2013-01-15 12:15:00,
2013-01-15 05:20:00,1.6,-2.4,30.01,WSW,242,0.0,0.0,83,0.00,,,0.00,Weather View 32 v70,2013-01-15 12:20:00,
2013-01-15 05:30:00,1.8,-2.0,30.02,WSW,242,0.0,0.0,84,0.00,,,0.00,Weather View 32 v70,2013-01-15 12:30:00,
2013-01-15 05:35:00,1.7,-2.0,30.01,WSW,242,0.0,0.0,84,0.00,,,0.00,Weather View 32 v70,2013-01-15 12:35:00,
2013-01-15 05:40:00,1.6,-2.1,30.01,WSW,242,0.0,0.0,84,0.00,,,0.00,Weather View 32 v70,2013-01-15 12:40:00,
2013-01-15 05:45:00,1.3,-2.2,30.02,WSW,242,0.0,0.0,85,0.00,,,0.00,Weather View 32 v70,2013-01-15 12:45:00,
2013-01-15 05:50:00,1.2,-2.3,30.02,WSW,242,0.0,0.0,85,0.00,,,0.00,Weather View 32 v70,2013-01-15 12:50:00,
2013-01-15 06:00:00,0.9,-2.7,30.02,WSW,242,0.0,0.0,84,0.00,,,0.00,Weather View 32 v70,2013-01-15 13:00:00,
2013-01-15 06:05:00,0.8,-2.8,30.03,WSW,242,0.0,0.0,84,0.00,,,0.00,Weather View 32 v70,2013-01-15 13:05:00,
2013-01-15 06:10:00,0.8,-2.8,30.03,WSW,242,0.0,0.0,84,0.00,,,0.00,Weather View 32 v70,2013-01-15 13:10:00,
2013-01-15 06:15:00,0.8,-2.9,30.03,WSW,242,0.0,0.0,84,0.00,,,0.00,Weather View 32 v70,2013-01-15 13:15:00,
2013-01-15 06:20:00,0.8,-3.0,30.03,WSW,242,0.0,0.0,84,0.00,,,0.00,Weather View 32 v70,2013-01-15 13:20:00,
2013-01-15 06:30:00,0.9,-3.0,30.02,WSW,242,0.0,0.0,83,0.00,,,0.00,Weather View 32 v70,2013-01-15 13:30:00,
2013-01-15 06:35:00,1.1,-2.8,30.02,WSW,242,0.0,0.0,83,0.00,,,0.00,Weather View 32 v70,2013-01-15 13:35:00,
2013-01-15 06:40:00,1.4,-2.6,30.03,WSW,242,0.0,0.0,83,0.00,,,0.00,Weather View 32 v70,2013-01-15 13:40:00,
2013-01-15 06:50:00,2.0,-2.2,30.03,WSW,242,0.0,0.0,82,0.00,,,0.00,Weather View 32 v70,2013-01-15 13:50:00,
2013-01-15 06:55:00,2.2,-2.1,30.03,WSW,242,0.0,0.0,82,0.00,,,0.00,Weather View 32 v70,2013-01-15 13:55:00,
2013-01-15 07:00:00,2.3,-2.1,30.03,WSW,242,0.0,0.0,81,0.00,,,0.00,Weather View 32 v70,2013-01-15 14:00:00,
2013-01-15 07:05:00,2.6,-1.9,30.03,WSW,242,0.0,0.0,81,0.00,,,0.00,Weather View 32 v70,2013-01-15 14:05:00,
2013-01-15 07:10:00,2.9,-1.6,30.03,WSW,242,0.0,0.0,81,0.00,,,0.00,Weather View 32 v70,2013-01-15 14:10:00,
2013-01-15 07:15:00,3.1,-1.4,30.03,WSW,242,0.0,0.0,81,0.00,,,0.00,Weather View 32 v70,2013-01-15 14:15:00,
2013-01-15 07:22:00,3.5,-1.1,30.03,WSW,242,0.0,0.0,81,0.00,,,0.00,Weather View 32 v70,2013-01-15 14:22:00,
2013-01-15 07:30:00,4.1,-0.9,30.04,WSW,242,0.0,0.0,79,0.00,,,0.00,Weather View 32 v70,2013-01-15 14:30:00,
2013-01-15 07:35:00,4.5,-0.6,30.05,WSW,242,0.0,0.0,79,0.00,,,0.00,Weather View 32 v70,2013-01-15 14:35:00,
2013-01-15 07:40:00,4.8,-0.4,30.05,WSW,242,0.0,0.0,79,0.00,,,0.00,Weather View 32 v70,2013-01-15 14:40:00,
2013-01-15 07:45:00,4.9,-0.4,30.05,WSW,242,0.0,0.0,78,0.00,,,0.00,Weather View 32 v70,2013-01-15 14:45:00,
2013-01-15 07:55:00,5.5,0.1,30.05,WSW,242,0.0,0.0,78,0.00,,,0.00,Weather View 32 v70,2013-01-15 14:55:00,
2013-01-15 08:00:00,5.8,0.3,30.05,WSW,242,0.0,0.0,78,0.00,,,0.00,Weather View 32 v70,2013-01-15 15:00:00,
2013-01-15 08:05:00,6.1,0.5,30.05,WSW,242,0.0,0.0,77,0.00,,,0.00,Weather View 32 v70,2013-01-15 15:05:00,
2013-01-15 08:10:00,6.5,0.8,30.06,WSW,242,0.0,0.0,77,0.00,,,0.00,Weather View 32 v70,2013-01-15 15:10:00,
2013-01-15 08:15:00,6.9,1.1,30.06,WSW,242,0.0,0.0,77,0.00,,,0.00,Weather View 32 v70,2013-01-15 15:15:00,
2013-01-15 08:23:00,7.4,1.5,30.06,WSW,242,0.0,0.0,76,0.00,,,0.00,Weather View 32 v70,2013-01-15 15:23:00,
2013-01-15 08:30:00,8.4,2.0,30.05,WSW,242,0.0,0.0,75,0.00,,,0.00,Weather View 32 v70,2013-01-15 15:30:00,
2013-01-15 08:35:00,8.8,2.2,30.06,WSW,242,0.0,0.0,74,0.00,,,0.00,Weather View 32 v70,2013-01-15 15:35:00,
2013-01-15 08:40:00,9.2,2.5,30.06,WSW,242,0.0,0.0,74,0.00,,,0.00,Weather View 32 v70,2013-01-15 15:40:00,
2013-01-15 08:45:00,9.6,2.7,30.06,WSW,242,0.0,0.0,73,0.00,,,0.00,Weather View 32 v70,2013-01-15 15:45:00,
2013-01-15 08:50:00,10.0,3.2,30.05,WSW,242,0.0,0.0,74,0.00,,,0.00,Weather View 32 v70,2013-01-15 15:50:00,
2013-01-15 08:55:00,10.5,3.4,30.06,WSW,242,0.0,0.0,73,0.00,,,0.00,Weather View 32 v70,2013-01-15 15:55:00,
2013-01-15 09:05:00,11.2,3.7,30.06,WSW,242,0.0,0.0,71,0.00,,,0.00,Weather View 32 v70,2013-01-15 16:05:00,
2013-01-15 09:10:00,11.4,3.7,30.06,WSW,242,0.0,0.0,71,0.00,,,0.00,Weather View 32 v70,2013-01-15 16:10:00,
2013-01-15 09:15:00,11.6,4.0,30.06,WSW,242,0.0,0.0,71,0.00,,,0.00,Weather View 32 v70,2013-01-15 16:15:00,
2013-01-15 09:20:00,12.0,4.3,30.06,WSW,242,0.0,0.0,71,0.00,,,0.00,Weather View 32 v70,2013-01-15 16:20:00,
2013-01-15 09:30:00,13.9,5.8,30.06,WSW,242,0.0,0.0,70,0.00,,,0.00,Weather View 32 v70,2013-01-15 16:30:00,
2013-01-15 09:35:00,14.7,5.8,30.06,WSW,242,0.0,0.0,67,0.00,,,0.00,Weather View 32 v70,2013-01-15 16:35:00,
2013-01-15 09:45:00,16.0,6.4,30.06,WSW,242,0.0,0.0,65,0.00,,,0.00,Weather View 32 v70,2013-01-15 16:45:00,
2013-01-15 09:50:00,16.3,6.7,30.07,WSW,242,0.0,0.0,65,0.00,,,0.00,Weather View 32 v70,2013-01-15 16:50:00,
2013-01-15 09:55:00,16.4,6.5,30.07,WSW,242,0.0,0.0,64,0.00,,,0.00,Weather View 32 v70,2013-01-15 16:55:00,
2013-01-15 10:05:00,17.2,6.8,30.07,WSW,242,0.0,0.0,63,0.00,,,0.00,Weather View 32 v70,2013-01-15 17:05:00,
2013-01-15 10:10:00,17.4,6.8,30.07,WSW,242,0.0,0.0,62,0.00,,,0.00,Weather View 32 v70,2013-01-15 17:10:00,
2013-01-15 10:15:00,17.6,6.6,30.07,WSW,242,0.0,0.0,62,0.00,,,0.00,Weather View 32 v70,2013-01-15 17:15:00,
2013-01-15 10:20:00,17.9,6.5,30.07,WSW,242,0.0,0.0,60,0.00,,,0.00,Weather View 32 v70,2013-01-15 17:20:00,
2013-01-15 10:30:00,18.4,6.5,30.07,WSW,242,0.0,0.0,59,0.00,,,0.00,Weather View 32 v70,2013-01-15 17:30:00,
2013-01-15 10:35:00,18.6,6.6,30.07,WSW,242,0.0,0.0,59,0.00,,,0.00,Weather View 32 v70,2013-01-15 17:35:00,
2013-01-15 10:40:00,18.9,6.7,30.07,WSW,242,0.0,0.0,58,0.00,,,0.00,Weather View 32 v70,2013-01-15 17:40:00,
2013-01-15 10:45:00,19.2,6.9,30.06,WSW,242,0.0,0.0,58,0.00,,,0.00,Weather View 32 v70,2013-01-15 17:45:00,
2013-01-15 10:50:00,19.7,7.4,30.06,WSW,242,0.0,0.0,58,0.00,,,0.00,Weather View 32 v70,2013-01-15 17:50:00,
2013-01-15 10:55:00,20.0,7.2,30.06,WSW,242,0.0,0.0,57,0.00,,,0.00,Weather View 32 v70,2013-01-15 17:55:00,
2013-01-15 11:00:00,20.4,7.6,30.05,WSW,242,0.0,0.0,57,0.00,,,0.00,Weather View 32 v70,2013-01-15 18:00:00,
2013-01-15 11:05:00,20.8,7.8,30.05,WSW,242,0.0,0.0,57,0.00,,,0.00,Weather View 32 v70,2013-01-15 18:05:00,
2013-01-15 11:15:00,21.5,8.2,30.05,WSW,242,0.0,0.0,56,0.00,,,0.00,Weather View 32 v70,2013-01-15 18:15:00,
2013-01-15 11:20:00,21.9,8.3,30.05,WSW,242,0.0,0.0,55,0.00,,,0.00,Weather View 32 v70,2013-01-15 18:20:00,
2013-01-15 11:25:00,22.1,8.5,30.04,WSW,242,0.0,0.0,55,0.00,,,0.00,Weather View 32 v70,2013-01-15 18:25:00,
2013-01-15 11:30:00,22.5,8.7,30.04,WSW,242,0.0,0.0,55,0.00,,,0.00,Weather View 32 v70,2013-01-15 18:30:00,
2013-01-15 11:35:00,22.8,8.8,30.03,WSW,242,0.0,0.0,55,0.00,,,0.00,Weather View 32 v70,2013-01-15 18:35:00,
2013-01-15 11:40:00,23.2,9.3,30.03,WSW,242,0.0,0.0,55,0.00,,,0.00,Weather View 32 v70,2013-01-15 18:40:00,
2013-01-15 11:50:00,24.0,9.9,30.03,WSW,242,0.0,0.0,54,0.00,,,0.00,Weather View 32 v70,2013-01-15 18:50:00,
2013-01-15 11:55:00,24.2,10.0,30.03,WSW,242,0.0,0.0,54,0.00,,,0.00,Weather View 32 v70,2013-01-15 18:55:00,
2013-01-15 12:00:00,24.5,10.1,30.03,WSW,242,0.0,0.0,54,0.00,,,0.00,Weather View 32 v70,2013-01-15 19:00:00,
2013-01-15 12:05:00,24.8,10.5,30.03,WSW,242,0.0,0.0,54,0.00,,,0.00,Weather View 32 v70,2013-01-15 19:05:00,
2013-01-15 12:10:00,24.9,10.4,30.03,WSW,242,0.0,0.0,54,0.00,,,0.00,Weather View 32 v70,2013-01-15 19:10:00,
2013-01-15 12:15:00,24.8,10.3,30.03,WSW,242,0.0,0.0,53,0.00,,,0.00,Weather View 32 v70,2013-01-15 19:15:00,
2013-01-15 12:20:00,24.9,10.1,30.03,WSW,242,0.0,0.0,53,0.00,,,0.00,Weather View 32 v70,2013-01-15 19:20:00,
2013-01-15 12:25:00,25.0,9.9,30.03,WSW,242,0.0,0.0,52,0.00,,,0.00,Weather View 32 v70,2013-01-15 19:25:00,
2013-01-15 12:35:00,25.6,10.0,30.03,WSW,242,0.0,0.0,51,0.00,,,0.00,Weather View 32 v70,2013-01-15 19:35:00,
2013-01-15 12:40:00,26.0,10.2,30.03,WSW,242,0.0,0.0,51,0.00,,,0.00,Weather View 32 v70,2013-01-15 19:40:00,
2013-01-15 12:45:00,26.4,10.1,30.03,WSW,242,0.0,0.0,50,0.00,,,0.00,Weather View 32 v70,2013-01-15 19:45:00,
2013-01-15 12:50:00,26.8,10.2,30.03,WSW,242,0.0,0.0,49,0.00,,,0.00,Weather View 32 v70,2013-01-15 19:50:00,
2013-01-15 12:55:00,27.2,10.4,30.03,WSW,242,0.0,0.0,49,0.00,,,0.00,Weather View 32 v70,2013-01-15 19:55:00,
2013-01-15 13:00:00,27.3,10.4,30.02,WSW,242,0.0,0.0,49,0.00,,,0.00,Weather View 32 v70,2013-01-15 20:00:00,
2013-01-15 13:05:00,27.8,10.7,30.03,WSW,242,0.0,0.0,48,0.00,,,0.00,Weather View 32 v70,2013-01-15 20:05:00,
2013-01-15 13:10:00,27.9,10.7,30.03,WSW,242,0.0,0.0,48,0.00,,,0.00,Weather View 32 v70,2013-01-15 20:10:00,
2013-01-15 13:20:00,28.3,11.1,30.03,WSW,242,0.0,0.0,48,0.00,,,0.00,Weather View 32 v70,2013-01-15 20:20:00,
2013-01-15 13:25:00,28.4,11.3,30.02,WSW,242,0.0,0.0,48,0.00,,,0.00,Weather View 32 v70,2013-01-15 20:25:00,
2013-01-15 13:30:00,28.3,11.2,30.03,WSW,242,0.0,0.0,48,0.00,,,0.00,Weather View 32 v70,2013-01-15 20:30:00,
2013-01-15 13:40:00,28.8,11.7,30.03,WSW,242,0.0,0.0,48,0.00,,,0.00,Weather View 32 v70,2013-01-15 20:40:00,
2013-01-15 13:45:00,29.0,11.8,30.03,WSW,242,0.0,0.0,48,0.00,,,0.00,Weather View 32 v70,2013-01-15 20:45:00,
2013-01-15 13:50:00,29.1,11.9,30.03,WSW,242,0.0,0.0,48,0.00,,,0.00,Weather View 32 v70,2013-01-15 20:50:00,
2013-01-15 14:00:00,29.2,12.0,30.03,WSW,242,0.0,0.0,48,0.00,,,0.00,Weather View 32 v70,2013-01-15 21:00:00,
2013-01-15 14:05:00,29.2,12.1,30.03,WSW,242,0.0,0.0,48,0.00,,,0.00,Weather View 32 v70,2013-01-15 21:05:00,
2013-01-15 14:10:00,29.4,12.2,30.04,WSW,242,0.0,0.0,48,0.00,,,0.00,Weather View 32 v70,2013-01-15 21:10:00,
2013-01-15 14:15:00,29.4,12.2,30.04,WSW,242,0.0,0.0,48,0.00,,,0.00,Weather View 32 v70,2013-01-15 21:15:00,
2013-01-15 14:20:00,29.4,12.3,30.04,WSW,242,0.0,0.0,48,0.00,,,0.00,Weather View 32 v70,2013-01-15 21:20:00,
2013-01-15 14:26:00,29.4,12.2,30.04,WSW,242,0.0,0.0,48,0.00,,,0.00,Weather View 32 v70,2013-01-15 21:26:00,
2013-01-15 14:35:00,29.4,12.4,30.04,WSW,242,0.0,0.0,49,0.00,,,0.00,Weather View 32 v70,2013-01-15 21:35:00,
2013-01-15 14:40:00,29.4,12.4,30.05,WSW,242,0.0,0.0,49,0.00,,,0.00,Weather View 32 v70,2013-01-15 21:40:00,
2013-01-15 14:45:00,29.5,12.5,30.05,WSW,242,0.0,0.0,49,0.00,,,0.00,Weather View 32 v70,2013-01-15 21:45:00,
2013-01-15 14:50:00,29.8,12.8,30.05,WSW,242,0.0,0.0,49,0.00,,,0.00,Weather View 32 v70,2013-01-15 21:50:00,
2013-01-15 14:55:00,30.0,12.9,30.04,WSW,242,0.0,0.0,49,0.00,,,0.00,Weather View 32 v70,2013-01-15 21:55:00,
2013-01-15 15:00:00,29.8,12.8,30.05,WSW,242,0.0,0.0,49,0.00,,,0.00,Weather View 32 v70,2013-01-15 22:00:00,
2013-01-15 15:10:00,29.7,12.8,30.05,WSW,242,0.0,0.0,49,0.00,,,0.00,Weather View 32 v70,2013-01-15 22:10:00,
2013-01-15 15:15:00,29.9,13.2,30.05,WSW,242,0.0,0.0,49,0.00,,,0.00,Weather View 32 v70,2013-01-15 22:15:00,
2013-01-15 15:25:00,30.1,13.2,30.05,WSW,242,0.0,0.0,49,0.00,,,0.00,Weather View 32 v70,2013-01-15 22:25:00,
2013-01-15 15:30:00,30.0,13.1,30.05,WSW,242,0.0,0.0,49,0.00,,,0.00,Weather View 32 v70,2013-01-15 22:30:00,
2013-01-15 15:35:00,30.0,13.0,30.05,WSW,242,0.0,0.0,49,0.00,,,0.00,Weather View 32 v70,2013-01-15 22:35:00,
2013-01-15 15:45:00,30.2,13.1,30.05,WSW,242,0.0,0.0,49,0.00,,,0.00,Weather View 32 v70,2013-01-15 22:45:00,
2013-01-15 15:50:00,30.3,13.1,30.04,WSW,242,0.0,0.0,48,0.00,,,0.00,Weather View 32 v70,2013-01-15 22:50:00,
2013-01-15 15:55:00,30.3,13.1,30.05,WSW,242,0.0,0.0,48,0.00,,,0.00,Weather View 32 v70,2013-01-15 22:55:00,
2013-01-15 16:00:00,30.4,13.3,30.05,WSW,242,0.0,0.0,49,0.00,,,0.00,Weather View 32 v70,2013-01-15 23:00:00,
2013-01-15 16:05:00,30.6,13.3,30.05,WSW,242,0.0,0.0,48,0.00,,,0.00,Weather View 32 v70,2013-01-15 23:05:00,
2013-01-15 16:10:00,30.8,13.3,30.05,WSW,242,0.0,0.0,48,0.00,,,0.00,Weather View 32 v70,2013-01-15 23:10:00,
2013-01-15 16:15:00,30.8,13.2,30.05,WSW,242,0.0,0.0,48,0.00,,,0.00,Weather View 32 v70,2013-01-15 23:15:00,
2013-01-15 16:20:00,30.7,13.1,30.05,WSW,242,0.0,0.0,48,0.00,,,0.00,Weather View 32 v70,2013-01-15 23:20:00,
2013-01-15 16:25:00,30.7,13.1,30.05,WSW,242,0.0,0.0,48,0.00,,,0.00,Weather View 32 v70,2013-01-15 23:25:00,
2013-01-15 16:35:00,30.7,13.4,30.06,WSW,242,0.0,0.0,48,0.00,,,0.00,Weather View 32 v70,2013-01-15 23:35:00,
2013-01-15 16:40:00,30.8,13.5,30.06,WSW,242,0.0,0.0,48,0.00,,,0.00,Weather View 32 v70,2013-01-15 23:40:00,
2013-01-15 16:45:00,30.8,13.6,30.06,WSW,242,0.0,0.0,48,0.00,,,0.00,Weather View 32 v70,2013-01-15 23:45:00,
2013-01-15 16:55:00,30.7,13.8,30.06,WSW,242,0.0,0.0,49,0.00,,,0.00,Weather View 32 v70,2013-01-15 23:55:00,
2013-01-15 17:00:00,30.7,13.9,30.06,WSW,242,0.0,0.0,49,0.00,,,0.00,Weather View 32 v70,2013-01-16 00:00:00,
2013-01-15 17:05:00,30.7,14.2,30.07,WSW,242,0.0,0.0,50,0.00,,,0.00,Weather View 32 v70,2013-01-16 00:05:00,
2013-01-15 17:10:00,30.6,14.3,30.07,WSW,242,0.0,0.0,50,0.00,,,0.00,Weather View 32 v70,2013-01-16 00:10:00,
2013-01-15 17:15:00,30.5,14.4,30.07,WSW,242,0.0,0.0,51,0.00,,,0.00,Weather View 32 v70,2013-01-16 00:15:00,
2013-01-15 17:20:00,30.4,14.6,30.07,WSW,242,0.0,0.0,52,0.00,,,0.00,Weather View 32 v70,2013-01-16 00:20:00,
2013-01-15 17:28:00,30.3,14.7,30.07,WSW,242,0.0,0.0,52,0.00,,,0.00,Weather View 32 v70,2013-01-16 00:28:00,
2013-01-15 17:35:00,30.1,14.8,30.07,WSW,242,0.0,0.0,53,0.00,,,0.00,Weather View 32 v70,2013-01-16 00:35:00,
2013-01-15 17:40:00,30.1,14.9,30.07,WSW,242,0.0,0.0,53,0.00,,,0.00,Weather View 32 v70,2013-01-16 00:40:00,
2013-01-15 17:45:00,30.1,15.1,30.07,WSW,242,0.0,0.0,53,0.00,,,0.00,Weather View 32 v70,2013-01-16 00:45:00,
2013-01-15 17:50:00,30.0,15.1,30.07,WSW,242,0.0,0.0,53,0.00,,,0.00,Weather View 32 v70,2013-01-16 00:50:00,
2013-01-15 17:55:00,30.0,15.1,30.07,WSW,242,0.0,0.0,54,0.00,,,0.00,Weather View 32 v70,2013-01-16 00:55:00,
2013-01-15 18:00:00,29.8,15.2,30.07,WSW,242,0.0,0.0,54,0.00,,,0.00,Weather View 32 v70,2013-01-16 01:00:00,
2013-01-15 18:10:00,29.8,15.2,30.08,WSW,242,0.0,0.0,54,0.00,,,0.00,Weather View 32 v70,2013-01-16 01:10:00,
2013-01-15 18:15:00,29.8,15.2,30.08,WSW,242,0.0,0.0,54,0.00,,,0.00,Weather View 32 v70,2013-01-16 01:15:00,
2013-01-15 18:20:00,29.8,15.2,30.08,WSW,242,0.0,0.0,54,0.00,,,0.00,Weather View 32 v70,2013-01-16 01:20:00,
2013-01-15 18:25:00,29.7,15.1,30.08,WSW,242,0.0,0.0,54,0.00,,,0.00,Weather View 32 v70,2013-01-16 01:25:00,
2013-01-15 18:30:00,29.6,15.0,30.08,WSW,242,0.0,0.0,54,0.00,,,0.00,Weather View 32 v70,2013-01-16 01:30:00,
2013-01-15 18:35:00,29.7,15.1,30.08,WSW,242,0.0,0.0,54,0.00,,,0.00,Weather View 32 v70,2013-01-16 01:35:00,
2013-01-15 18:45:00,29.8,15.1,30.09,WSW,242,0.0,0.0,54,0.00,,,0.00,Weather View 32 v70,2013-01-16 01:45:00,
2013-01-15 18:50:00,29.8,15.1,30.10,WSW,242,0.0,0.0,54,0.00,,,0.00,Weather View 32 v70,2013-01-16 01:50:00,
2013-01-15 18:55:00,29.8,15.2,30.09,WSW,242,0.0,0.0,54,0.00,,,0.00,Weather View 32 v70,2013-01-16 01:55:00,
2013-01-15 19:00:00,29.8,15.2,30.10,WSW,242,0.0,0.0,54,0.00,,,0.00,Weather View 32 v70,2013-01-16 02:00:00,
2013-01-15 19:10:00,29.8,15.2,30.09,WSW,242,0.0,0.0,54,0.00,,,0.00,Weather View 32 v70,2013-01-16 02:10:00,
2013-01-15 19:20:00,29.7,15.0,30.09,WSW,242,0.0,0.0,54,0.00,,,0.00,Weather View 32 v70,2013-01-16 02:20:00,
2013-01-15 19:25:00,29.8,14.9,30.09,WSW,242,0.0,0.0,53,0.00,,,0.00,Weather View 32 v70,2013-01-16 02:25:00,
2013-01-15 19:30:00,29.8,14.9,30.08,WSW,242,0.0,0.0,53,0.00,,,0.00,Weather View 32 v70,2013-01-16 02:30:00,
2013-01-15 19:40:00,29.9,14.8,30.09,WSW,242,0.0,0.0,53,0.00,,,0.00,Weather View 32 v70,2013-01-16 02:40:00,
2013-01-15 19:50:00,29.8,14.8,30.08,WSW,242,0.0,0.0,53,0.00,,,0.00,Weather View 32 v70,2013-01-16 02:50:00,
2013-01-15 19:55:00,29.9,15.1,30.08,WSW,242,0.0,0.0,54,0.00,,,0.00,Weather View 32 v70,2013-01-16 02:55:00,
2013-01-15 20:00:00,29.9,14.7,30.08,WSW,242,0.0,0.0,53,0.00,,,0.00,Weather View 32 v70,2013-01-16 03:00:00,
2013-01-15 20:05:00,30.3,14.9,30.08,WSW,242,0.0,0.0,52,0.00,,,0.00,Weather View 32 v70,2013-01-16 03:05:00,
2013-01-15 20:10:00,30.5,14.9,30.08,WSW,242,0.0,0.0,52,0.00,,,0.00,Weather View 32 v70,2013-01-16 03:10:00,
2013-01-15 20:20:00,30.5,15.1,30.08,WSW,242,0.0,0.0,52,0.00,,,0.00,Weather View 32 v70,2013-01-16 03:20:00,
2013-01-15 20:25:00,30.4,15.1,30.07,WSW,242,0.0,0.0,53,0.00,,,0.00,Weather View 32 v70,2013-01-16 03:25:00,
2013-01-15 20:30:00,30.3,15.4,30.07,WSW,242,0.0,0.0,53,0.00,,,0.00,Weather View 32 v70,2013-01-16 03:30:00,
2013-01-15 20:40:00,30.1,15.5,30.07,WSW,242,0.0,0.0,54,0.00,,,0.00,Weather View 32 v70,2013-01-16 03:40:00,
2013-01-15 20:45:00,29.9,15.6,30.07,WSW,242,0.0,0.0,55,0.00,,,0.00,Weather View 32 v70,2013-01-16 03:45:00,
2013-01-15 20:50:00,29.7,15.6,30.07,WSW,242,0.0,0.0,55,0.00,,,0.00,Weather View 32 v70,2013-01-16 03:50:00,
2013-01-15 21:00:00,29.7,15.8,30.07,WSW,242,0.0,0.0,56,0.00,,,0.00,Weather View 32 v70,2013-01-16 04:00:00,
2013-01-15 21:05:00,29.8,15.9,30.08,WSW,242,0.0,0.0,56,0.00,,,0.00,Weather View 32 v70,2013-01-16 04:05:00,
2013-01-15 21:10:00,29.9,16.2,30.07,WSW,242,0.0,0.0,56,0.00,,,0.00,Weather View 32 v70,2013-01-16 04:10:00,
2013-01-15 21:20:00,29.9,16.3,30.08,WSW,242,0.0,0.0,57,0.00,,,0.00,Weather View 32 v70,2013-01-16 04:20:00,
2013-01-15 21:25:00,30.0,16.4,30.08,WSW,242,0.0,0.0,56,0.00,,,0.00,Weather View 32 v70,2013-01-16 04:25:00,
2013-01-15 21:30:00,30.0,16.3,30.08,WSW,242,0.0,0.0,56,0.00,,,0.00,Weather View 32 v70,2013-01-16 04:30:00,
2013-01-15 21:40:00,30.2,16.4,30.08,WSW,242,0.0,0.0,56,0.00,,,0.00,Weather View 32 v70,2013-01-16 04:40:00,
2013-01-15 21:45:00,30.2,16.3,30.08,WSW,242,0.0,0.0,56,0.00,,,0.00,Weather View 32 v70,2013-01-16 04:45:00,
2013-01-15 21:50:00,30.2,16.3,30.08,WSW,242,0.0,0.0,56,0.00,,,0.00,Weather View 32 v70,2013-01-16 04:50:00,
2013-01-15 22:05:00,30.2,16.6,30.09,WSW,242,0.0,0.0,57,0.00,,,0.00,Weather View 32 v70,2013-01-16 05:05:00,
2013-01-15 22:15:00,30.3,16.7,30.10,WSW,242,0.0,0.0,57,0.00,,,0.00,Weather View 32 v70,2013-01-16 05:15:00,
2013-01-15 22:20:00,30.4,16.9,30.10,WSW,242,0.0,0.0,57,0.00,,,0.00,Weather View 32 v70,2013-01-16 05:20:00,
2013-01-15 22:25:00,30.5,17.0,30.10,WSW,242,0.0,0.0,57,0.00,,,0.00,Weather View 32 v70,2013-01-16 05:25:00,
2013-01-15 22:30:00,30.5,17.1,30.11,WSW,242,0.0,0.0,57,0.00,,,0.00,Weather View 32 v70,2013-01-16 05:30:00,
2013-01-15 22:35:00,30.5,17.2,30.12,WSW,242,0.0,0.0,57,0.00,,,0.00,Weather View 32 v70,2013-01-16 05:35:00,
2013-01-15 22:40:00,30.5,17.2,30.12,WSW,242,0.0,0.0,57,0.00,,,0.00,Weather View 32 v70,2013-01-16 05:40:00,
2013-01-15 22:45:00,30.5,17.2,30.11,WSW,242,0.0,0.0,57,0.00,,,0.00,Weather View 32 v70,2013-01-16 05:45:00,
2013-01-15 22:50:00,30.3,17.0,30.11,WSW,242,0.0,0.0,57,0.00,,,0.00,Weather View 32 v70,2013-01-16 05:50:00,
2013-01-15 23:00:00,30.0,16.9,30.11,WSW,242,0.0,0.0,58,0.00,,,0.00,Weather View 32 v70,2013-01-16 06:00:00,
2013-01-15 23:05:00,30.1,17.1,30.11,WSW,242,0.0,0.0,58,0.00,,,0.00,Weather View 32 v70,2013-01-16 06:05:00,
2013-01-15 23:10:00,30.2,17.2,30.11,WSW,242,0.0,0.0,58,0.00,,,0.00,Weather View 32 v70,2013-01-16 06:10:00,
2013-01-15 23:15:00,30.1,17.3,30.12,WSW,242,0.0,0.0,58,0.00,,,0.00,Weather View 32 v70,2013-01-16 06:15:00,
2013-01-15 23:25:00,30.1,17.3,30.11,WSW,242,0.0,0.0,58,0.00,,,0.00,Weather View 32 v70,2013-01-16 06:25:00,
2013-01-15 23:30:00,30.3,17.4,30.11,WSW,242,0.0,0.0,58,0.00,,,0.00,Weather View 32 v70,2013-01-16 06:30:00,
2013-01-15 23:40:00,29.7,17.4,30.11,WSW,242,0.0,0.0,60,0.00,,,0.00,Weather View 32 v70,2013-01-16 06:40:00,
2013-01-15 23:50:00,29.4,17.3,30.11,WSW,242,0.0,0.0,60,0.00,,,0.00,Weather View 32 v70,2013-01-16 06:50:00,
2013-01-15 23:55:00,29.5,17.3,30.11,WSW,242,0.0,0.0,60,0.00,,,0.00,Weather View 32 v70,2013-01-16 06:55:00,